Location: Favalello
(42.2939°N, 9.2706°E)
Time: 11:12:53
(UTC+00:00)

STARLINK-60 - Pass Details

Date: 06 December 2019
Orbit: 411 x 419 km, 53.0° (Epoch: 24 January)

Event Time Altitude Azimuth Distance (km) Brightness Sun altitude
Rises 17:31:56 0° 209° (SSW) 2,375 7.5 -18.1°
Reaches altitude 10° 17:34:10 10° 198° (SSW) 1,512 6.3 -18.5°
Enters shadow 17:36:44 30° 152° (SSE) 797 4.3 -19.0°
